{"data":{"norad_id":59084,"epoch":"2026-05-24T22:57:09.029664Z","epoch_age_seconds":75319,"freshness":"FRESH","line1":"1 59084U 24041L   26144.95635451 -.00000638  00000+0 -13686-4 0  9998","line2":"2 59084  42.9986 240.1462 0000869 281.4142  78.6612 15.27573678125986","mean_motion":15.27573678,"eccentricity":8.69e-5,"inclination_deg":42.9986,"raan_deg":240.1462,"arg_perigee_deg":281.4142,"mean_anomaly_deg":78.6612,"bstar":-1.3686e-5,"rev_number":12598,"period_min":94.267138845004,"perigee_km":482.47178773047,"apogee_km":483.66426516407,"semimajor_km":6861.2050264473,"source":"CELESTRAK","updated_at":"2026-05-25T13:38:18.829761Z"}}